User: anonymous   Login
Location: Camp Creek
(33.9000°N, 111.8167°W)
Time: 16:08:56
(UTC-07:00)
Language:

Cosmos 1656 - Orbit

View from above orbital plane
View from above orbital plane
View from above satellite
View from above satellite

Ground track
Ground track

The orbit data is extracted from the following two-line orbital elements,

1 15755U 85042A   14296.83407216  .00000251  00000-0  13843-3 0  8860
2 15755 071.1131 241.1991 0033209 114.9948 245.4633 14.20306066523330
Epoch (UTC): 23 October 2014 20:01:03
Eccentricity: 0.0033209
inclination: 71.1131°
perigee height: 800 km
apogee height: 848 km
right ascension of ascending node: 241.1991°
argument of perigee: 114.9948°
revolutions per day: 14.20306066
mean anomaly at epoch: 245.4633°
orbit number at epoch: 52333

The dashed part of the orbit path shows where the satellite is in the earth's shadow,  

DLR